Location: Barrio de Canyet
(41.4665°N, 2.2381°E)
Time: 20:22:24
(UTC+00:00)

STARLINK-1224 - Pass Details

Date: 09 April 2020
Orbit: 549 x 551 km, 53.0° (Epoch: 31 May)

Event Time Altitude Azimuth Distance (km) Brightness Sun altitude
Rises 20:42:28 0° 309° (NW) 2,786 8.6 -24.2°
Reaches altitude 10° 20:44:46 10° 314° (NW) 1,886 7.4 -24.5°
Enters shadow 20:48:35 54° 7° (N) 704 4.2 -25.1°
